Year,Month,Day,Hour,Minute,Value (Times are PST for temperature in C)
2008,12,21,00,00,-4.30
2008,12,21,00,01,-4.30
2008,12,21,00,02,-4.30
2008,12,21,00,03,-4.30
2008,12,21,00,04,-4.30
2008,12,21,00,05,-4.30
2008,12,21,00,06,-4.30
2008,12,21,00,07,-4.30
2008,12,21,00,08,-4.30
2008,12,21,00,09,-4.30
2008,12,21,00,10,-4.30
2008,12,21,00,11,-4.30
2008,12,21,00,12,-4.30
2008,12,21,00,13,-4.20
2008,12,21,00,14,-4.20
2008,12,21,00,15,-4.20
2008,12,21,00,16,-4.20
2008,12,21,00,17,-4.20
2008,12,21,00,18,-4.20
2008,12,21,00,19,-4.20
2008,12,21,00,20,-4.20
2008,12,21,00,21,-4.20
2008,12,21,00,22,-4.20
2008,12,21,00,23,-4.20
2008,12,21,00,24,-4.20
2008,12,21,00,25,-4.20
2008,12,21,00,26,-4.20
2008,12,21,00,27,-4.20
2008,12,21,00,28,-4.20
2008,12,21,00,29,-4.20
2008,12,21,00,30,-4.20
2008,12,21,00,31,-4.20
2008,12,21,00,32,-4.20
2008,12,21,00,33,-4.20
2008,12,21,00,34,-4.20
2008,12,21,00,35,-4.20
2008,12,21,00,36,-4.20
2008,12,21,00,37,-4.20
2008,12,21,00,38,-4.20
2008,12,21,00,39,-4.20
2008,12,21,00,40,-4.20
2008,12,21,00,41,-4.20
2008,12,21,00,42,-4.20
2008,12,21,00,43,-4.20
2008,12,21,00,44,-4.20
2008,12,21,00,45,-4.20
2008,12,21,00,46,-4.20
2008,12,21,00,47,-4.20
2008,12,21,00,48,-4.20
2008,12,21,00,49,-4.20
2008,12,21,00,50,-4.20
2008,12,21,00,51,-4.20
2008,12,21,00,52,-4.20
2008,12,21,00,53,-4.20
2008,12,21,00,54,-4.20
2008,12,21,00,55,-4.20
2008,12,21,00,56,-4.20
2008,12,21,00,57,-4.20
2008,12,21,00,58,-4.20
2008,12,21,00,59,-4.20
2008,12,21,01,00,-4.20
2008,12,21,01,01,-4.20
2008,12,21,01,02,-4.20
2008,12,21,01,03,-4.20
2008,12,21,01,04,-4.20
2008,12,21,01,05,-4.20
2008,12,21,01,06,-4.20
2008,12,21,01,07,-4.20
2008,12,21,01,08,-4.10
2008,12,21,01,09,-4.10
2008,12,21,01,10,-4.10
2008,12,21,01,11,-4.10
2008,12,21,01,12,-4.10
2008,12,21,01,13,-4.10
2008,12,21,01,14,-4.10
2008,12,21,01,15,-4.10
2008,12,21,01,16,-4.10
2008,12,21,01,17,-4.10
2008,12,21,01,18,-4.10
2008,12,21,01,19,-4.10
2008,12,21,01,20,-4.10
2008,12,21,01,21,-4.10
2008,12,21,01,22,-4.10
2008,12,21,01,23,-4.10
2008,12,21,01,24,-4.10
2008,12,21,01,25,-4.10
2008,12,21,01,26,-4.10
2008,12,21,01,27,-4.10
2008,12,21,01,28,-4.10
2008,12,21,01,29,-4.10
2008,12,21,01,30,-4.10
2008,12,21,01,31,-4.10
2008,12,21,01,32,-4.10
2008,12,21,01,33,-4.10
2008,12,21,01,34,-4.10
2008,12,21,01,35,-4.00
2008,12,21,01,36,-4.00
2008,12,21,01,37,-4.00
2008,12,21,01,38,-4.00
2008,12,21,01,39,-4.00
2008,12,21,01,40,-4.00
2008,12,21,01,41,-4.00
2008,12,21,01,42,-4.00
2008,12,21,01,43,-4.00
2008,12,21,01,44,-4.00
2008,12,21,01,45,-3.90
2008,12,21,01,46,-3.90
2008,12,21,01,47,-3.90
2008,12,21,01,48,-3.90
2008,12,21,01,49,-3.90
2008,12,21,01,50,-3.90
2008,12,21,01,51,-3.90
2008,12,21,01,52,-3.90
2008,12,21,01,53,-3.90
2008,12,21,01,54,-3.80
2008,12,21,01,55,-3.80
2008,12,21,01,56,-3.80
2008,12,21,01,57,-3.80
2008,12,21,01,58,-3.80
2008,12,21,01,59,-3.80
2008,12,21,02,00,-3.80
2008,12,21,02,01,-3.70
2008,12,21,02,02,-3.70
2008,12,21,02,03,-3.70
2008,12,21,02,04,-3.70
2008,12,21,02,05,-3.70
2008,12,21,02,06,-3.70
2008,12,21,02,07,-3.70
2008,12,21,02,08,-3.70
2008,12,21,02,09,-3.70
2008,12,21,02,10,-3.70
2008,12,21,02,11,-3.70
2008,12,21,02,12,-3.70
2008,12,21,02,13,-3.70
2008,12,21,02,14,-3.70
2008,12,21,02,15,-3.70
2008,12,21,02,16,-3.70
2008,12,21,02,17,-3.70
2008,12,21,02,18,-3.70
2008,12,21,02,19,-3.70
2008,12,21,02,20,-3.70
2008,12,21,02,21,-3.70
2008,12,21,02,22,-3.70
2008,12,21,02,23,-3.70
2008,12,21,02,24,-3.70
2008,12,21,02,25,-3.70
2008,12,21,02,26,-3.70
2008,12,21,02,27,-3.70
2008,12,21,02,28,-3.70
2008,12,21,02,29,-3.70
2008,12,21,02,30,-3.70
2008,12,21,02,31,-3.70
2008,12,21,02,32,-3.70
2008,12,21,02,33,-3.70
2008,12,21,02,34,-3.70
2008,12,21,02,35,-3.70
2008,12,21,02,36,-3.70
2008,12,21,02,37,-3.70
2008,12,21,02,38,-3.70
2008,12,21,02,39,-3.70
2008,12,21,02,40,-3.70
2008,12,21,02,41,-3.70
2008,12,21,02,42,-3.70
2008,12,21,02,43,-3.70
2008,12,21,02,44,-3.70
2008,12,21,02,45,-3.70
2008,12,21,02,46,-3.70
2008,12,21,02,47,-3.70
2008,12,21,02,48,-3.70
2008,12,21,02,49,-3.70
2008,12,21,02,50,-3.70
2008,12,21,02,51,-3.70
2008,12,21,02,52,-3.70
2008,12,21,02,53,-3.70
2008,12,21,02,54,-3.70
2008,12,21,02,55,-3.70
2008,12,21,02,56,-3.70
2008,12,21,02,57,-3.70
2008,12,21,02,58,-3.70
2008,12,21,02,59,-3.70
2008,12,21,03,00,-3.70
2008,12,21,03,01,-3.70
2008,12,21,03,02,-3.70
2008,12,21,03,03,-3.60
2008,12,21,03,04,-3.60
2008,12,21,03,05,-3.60
2008,12,21,03,06,-3.60
2008,12,21,03,07,-3.60
2008,12,21,03,08,-3.60
2008,12,21,03,09,-3.60
2008,12,21,03,10,-3.60
2008,12,21,03,11,-3.60
2008,12,21,03,12,-3.60
2008,12,21,03,13,-3.60
2008,12,21,03,14,-3.60
2008,12,21,03,15,-3.60
2008,12,21,03,16,-3.60
2008,12,21,03,17,-3.60
2008,12,21,03,18,-3.60
2008,12,21,03,19,-3.60
2008,12,21,03,20,-3.60
2008,12,21,03,21,-3.60
2008,12,21,03,22,-3.60
2008,12,21,03,23,-3.60
2008,12,21,03,24,-3.60
2008,12,21,03,25,-3.60
2008,12,21,03,26,-3.60
2008,12,21,03,27,-3.60
2008,12,21,03,28,-3.60
2008,12,21,03,29,-3.60
2008,12,21,03,30,-3.60
2008,12,21,03,31,-3.60
2008,12,21,03,32,-3.50
2008,12,21,03,33,-3.50
2008,12,21,03,34,-3.50
2008,12,21,03,35,-3.50
2008,12,21,03,36,-3.50
2008,12,21,03,37,-3.50
2008,12,21,03,38,-3.50
2008,12,21,03,39,-3.50
2008,12,21,03,40,-3.50
2008,12,21,03,41,-3.50
2008,12,21,03,42,-3.50
2008,12,21,03,43,-3.50
2008,12,21,03,44,-3.50
2008,12,21,03,45,-3.50
2008,12,21,03,46,-3.50
2008,12,21,03,47,-3.50
2008,12,21,03,48,-3.50
2008,12,21,03,49,-3.50
2008,12,21,03,50,-3.50
2008,12,21,03,51,-3.50
2008,12,21,03,52,-3.50
2008,12,21,03,53,-3.50
2008,12,21,03,54,-3.50
2008,12,21,03,55,-3.50
2008,12,21,03,56,-3.50
2008,12,21,03,57,-3.50
2008,12,21,03,58,-3.50
2008,12,21,03,59,-3.50
2008,12,21,04,00,-3.50
2008,12,21,04,01,-3.50
2008,12,21,04,02,-3.50
2008,12,21,04,03,-3.50
2008,12,21,04,04,-3.50
2008,12,21,04,05,-3.40
2008,12,21,04,06,-3.40
2008,12,21,04,07,-3.40
2008,12,21,04,08,-3.40
2008,12,21,04,09,-3.40
2008,12,21,04,10,-3.40
2008,12,21,04,11,-3.40
2008,12,21,04,12,-3.40
2008,12,21,04,13,-3.40
2008,12,21,04,14,-3.40
2008,12,21,04,15,-3.40
2008,12,21,04,16,-3.40
2008,12,21,04,17,-3.40
2008,12,21,04,18,-3.40
2008,12,21,04,19,-3.30
2008,12,21,04,20,-3.30
2008,12,21,04,21,-3.30
2008,12,21,04,22,-3.30
2008,12,21,04,23,-3.30
2008,12,21,04,24,-3.30
2008,12,21,04,25,-3.30
2008,12,21,04,26,-3.30
2008,12,21,04,27,-3.30
2008,12,21,04,28,-3.30
2008,12,21,04,29,-3.30
2008,12,21,04,30,-3.30
2008,12,21,04,31,-3.30
2008,12,21,04,32,-3.30
2008,12,21,04,33,-3.30
2008,12,21,04,34,-3.30
2008,12,21,04,35,-3.30
2008,12,21,04,36,-3.30
2008,12,21,04,37,-3.30
2008,12,21,04,38,-3.30
2008,12,21,04,39,-3.20
2008,12,21,04,40,-3.20
2008,12,21,04,41,-3.20
2008,12,21,04,42,-3.20
2008,12,21,04,43,-3.20
2008,12,21,04,44,-3.20
2008,12,21,04,45,-3.20
2008,12,21,04,46,-3.20
2008,12,21,04,47,-3.20
2008,12,21,04,48,-3.20
2008,12,21,04,49,-3.20
2008,12,21,04,50,-3.20
2008,12,21,04,51,-3.20
2008,12,21,04,52,-3.20
2008,12,21,04,53,-3.20
2008,12,21,04,54,-3.20
2008,12,21,04,55,-3.10
2008,12,21,04,56,-3.10
2008,12,21,04,57,-3.10
2008,12,21,04,58,-3.10
2008,12,21,04,59,-3.10
2008,12,21,05,00,-3.10
2008,12,21,05,01,-3.10
2008,12,21,05,02,-3.10
2008,12,21,05,03,-3.10
2008,12,21,05,04,-3.10
2008,12,21,05,05,-3.10
2008,12,21,05,06,-3.10
2008,12,21,05,07,-3.10
2008,12,21,05,08,-3.10
2008,12,21,05,09,-3.10
2008,12,21,05,10,-3.10
2008,12,21,05,11,-3.10
2008,12,21,05,12,-3.10
2008,12,21,05,13,-3.10
2008,12,21,05,14,-3.00
2008,12,21,05,15,-3.00
2008,12,21,05,16,-3.00
2008,12,21,05,17,-3.00
2008,12,21,05,18,-3.00
2008,12,21,05,19,-3.00
2008,12,21,05,20,-3.00
2008,12,21,05,21,-3.00
2008,12,21,05,22,-3.00
2008,12,21,05,23,-2.90
2008,12,21,05,24,-2.90
2008,12,21,05,25,-2.90
2008,12,21,05,26,-2.90
2008,12,21,05,27,-2.90
2008,12,21,05,28,-2.90
2008,12,21,05,29,-2.90
2008,12,21,05,30,-2.90
2008,12,21,05,31,-2.90
2008,12,21,05,32,-2.90
2008,12,21,05,33,-2.90
2008,12,21,05,34,-2.90
2008,12,21,05,35,-2.90
2008,12,21,05,36,-2.90
2008,12,21,05,37,-2.90
2008,12,21,05,38,-2.90
2008,12,21,05,39,-2.90
2008,12,21,05,40,-2.90
2008,12,21,05,41,-2.90
2008,12,21,05,42,-2.90
2008,12,21,05,43,-2.90
2008,12,21,05,44,-2.90
2008,12,21,05,45,-2.90
2008,12,21,05,46,-2.90
2008,12,21,05,47,-2.90
2008,12,21,05,48,-2.90
2008,12,21,05,49,-2.90
2008,12,21,05,50,-2.90
2008,12,21,05,51,-2.90
2008,12,21,05,52,-2.90
2008,12,21,05,53,-2.90
2008,12,21,05,54,-2.90
2008,12,21,05,55,-2.90
2008,12,21,05,56,-2.90
2008,12,21,05,57,-2.90
2008,12,21,05,58,-2.90
2008,12,21,05,59,-2.90
2008,12,21,06,00,-2.90
2008,12,21,06,01,-2.90
2008,12,21,06,02,-2.90
2008,12,21,06,03,-2.90
2008,12,21,06,04,-2.90
2008,12,21,06,05,-2.90
2008,12,21,06,06,-2.90
2008,12,21,06,07,-2.90
2008,12,21,06,08,-2.90
2008,12,21,06,09,-2.90
2008,12,21,06,10,-2.90
2008,12,21,06,11,-2.80
2008,12,21,06,12,-2.80
2008,12,21,06,13,-2.80
2008,12,21,06,14,-2.80
2008,12,21,06,15,-2.80
2008,12,21,06,16,-2.80
2008,12,21,06,17,-2.80
2008,12,21,06,18,-2.80
2008,12,21,06,19,-2.80
2008,12,21,06,20,-2.80
2008,12,21,06,21,-2.80
2008,12,21,06,22,-2.80
2008,12,21,06,23,-2.80
2008,12,21,06,24,-2.80
2008,12,21,06,25,-2.70
2008,12,21,06,26,-2.70
2008,12,21,06,27,-2.70
2008,12,21,06,28,-2.70
2008,12,21,06,29,-2.70
2008,12,21,06,30,-2.70
2008,12,21,06,31,-2.60
2008,12,21,06,32,-2.60
2008,12,21,06,33,-2.60
2008,12,21,06,34,-2.60
2008,12,21,06,35,-2.60
2008,12,21,06,36,-2.60
2008,12,21,06,37,-2.60
2008,12,21,06,38,-2.60
2008,12,21,06,39,-2.60
2008,12,21,06,40,-2.60
2008,12,21,06,41,-2.50
2008,12,21,06,42,-2.50
2008,12,21,06,43,-2.50
2008,12,21,06,44,-2.50
2008,12,21,06,45,-2.50
2008,12,21,06,46,-2.50
2008,12,21,06,47,-2.50
2008,12,21,06,48,-2.50
2008,12,21,06,49,-2.40
2008,12,21,06,50,-2.40
2008,12,21,06,51,-2.40
2008,12,21,06,52,-2.40
2008,12,21,06,53,-2.40
2008,12,21,06,54,-2.40
2008,12,21,06,55,-2.40
2008,12,21,06,56,-2.40
2008,12,21,06,57,-2.40
2008,12,21,06,58,-2.40
2008,12,21,06,59,-2.40
2008,12,21,07,00,-2.40
2008,12,21,07,01,-2.30
2008,12,21,07,02,-2.30
2008,12,21,07,03,-2.30
2008,12,21,07,04,-2.30
2008,12,21,07,05,-2.30
2008,12,21,07,06,-2.30
2008,12,21,07,07,-2.30
2008,12,21,07,08,-2.30
2008,12,21,07,09,-2.30
2008,12,21,07,10,-2.30
2008,12,21,07,11,-2.30
2008,12,21,07,12,-2.20
2008,12,21,07,13,-2.20
2008,12,21,07,14,-2.20
2008,12,21,07,15,-2.20
2008,12,21,07,16,-2.20
2008,12,21,07,17,-2.20
2008,12,21,07,18,-2.10
2008,12,21,07,19,-2.10
2008,12,21,07,20,-2.10
2008,12,21,07,21,-2.10
2008,12,21,07,22,-2.10
2008,12,21,07,23,-2.00
2008,12,21,07,24,-2.00
2008,12,21,07,25,-2.00
2008,12,21,07,26,-2.00
2008,12,21,07,27,-2.00
2008,12,21,07,28,-1.90
2008,12,21,07,29,-1.90
2008,12,21,07,30,-1.90
2008,12,21,07,31,-1.90
2008,12,21,07,32,-1.80
2008,12,21,07,33,-1.80
2008,12,21,07,34,-1.80
2008,12,21,07,35,-1.80
2008,12,21,07,36,-1.80
2008,12,21,07,37,-1.80
2008,12,21,07,38,-1.80
2008,12,21,07,39,-1.70
2008,12,21,07,40,-1.70
2008,12,21,07,41,-1.70
2008,12,21,07,42,-1.70
2008,12,21,07,43,-1.70
2008,12,21,07,44,-1.70
2008,12,21,07,45,-1.70
2008,12,21,07,46,-1.70
2008,12,21,07,47,-1.70
2008,12,21,07,48,-1.70
2008,12,21,07,49,-1.60
2008,12,21,07,50,-1.60
2008,12,21,07,51,-1.60
2008,12,21,07,52,-1.60
2008,12,21,07,53,-1.60
2008,12,21,07,54,-1.60
2008,12,21,07,55,-1.60
2008,12,21,07,56,-1.60
2008,12,21,07,57,-1.60
2008,12,21,07,58,-1.50
2008,12,21,07,59,-1.50
2008,12,21,08,00,-1.50
2008,12,21,08,01,-1.50
2008,12,21,08,02,-1.50
2008,12,21,08,03,-1.50
2008,12,21,08,04,-1.50
2008,12,21,08,05,-1.50
2008,12,21,08,06,-1.50
2008,12,21,08,07,-1.50
2008,12,21,08,08,-1.50
2008,12,21,08,09,-1.50
2008,12,21,08,10,-1.50
2008,12,21,08,11,-1.50
2008,12,21,08,12,-1.50
2008,12,21,08,13,-1.40
2008,12,21,08,14,-1.40
2008,12,21,08,15,-1.40
2008,12,21,08,16,-1.40
2008,12,21,08,17,-1.40
2008,12,21,08,18,-1.40
2008,12,21,08,19,-1.40
2008,12,21,08,20,-1.40
2008,12,21,08,21,-1.40
2008,12,21,08,22,-1.40
2008,12,21,08,23,-1.40
2008,12,21,08,24,-1.40
2008,12,21,08,25,-1.30
2008,12,21,08,26,-1.30
2008,12,21,08,27,-1.30
2008,12,21,08,28,-1.30
2008,12,21,08,29,-1.30
2008,12,21,08,30,-1.30
2008,12,21,08,31,-1.30
2008,12,21,08,32,-1.30
2008,12,21,08,33,-1.30
2008,12,21,08,34,-1.30
2008,12,21,08,35,-1.30
2008,12,21,08,36,-1.20
2008,12,21,08,37,-1.20
2008,12,21,08,38,-1.20
2008,12,21,08,39,-1.20
2008,12,21,08,40,-1.20
2008,12,21,08,41,-1.20
2008,12,21,08,42,-1.20
2008,12,21,08,43,-1.20
2008,12,21,08,44,-1.20
2008,12,21,08,45,-1.20
2008,12,21,08,46,-1.20
2008,12,21,08,47,-1.20
2008,12,21,08,48,-1.20
2008,12,21,08,49,-1.20
2008,12,21,08,50,-1.20
2008,12,21,08,51,-1.10
2008,12,21,08,52,-1.10
2008,12,21,08,53,-1.10
2008,12,21,08,54,-1.10
2008,12,21,08,55,-1.10
2008,12,21,08,56,-1.10
2008,12,21,08,57,-1.10
2008,12,21,08,58,-1.10
2008,12,21,08,59,-1.10
2008,12,21,09,00,-1.10
2008,12,21,09,01,-1.10
2008,12,21,09,02,-1.10
2008,12,21,09,03,-1.10
2008,12,21,09,04,-1.10
2008,12,21,09,05,-1.10
2008,12,21,09,06,-1.10
2008,12,21,09,07,-1.10
2008,12,21,09,08,-1.10
2008,12,21,09,09,-1.10
2008,12,21,09,10,-1.10
2008,12,21,09,11,-1.10
2008,12,21,09,12,-1.10
2008,12,21,09,13,-1.10
2008,12,21,09,14,-1.10
2008,12,21,09,15,-1.10
2008,12,21,09,16,-1.10
2008,12,21,09,17,-1.10
2008,12,21,09,18,-1.10
2008,12,21,09,19,-1.10
2008,12,21,09,20,-1.10
2008,12,21,09,21,-1.10
2008,12,21,09,22,-1.10
2008,12,21,09,23,-1.10
2008,12,21,09,24,-1.10
2008,12,21,09,25,-1.10
2008,12,21,09,26,-1.10
2008,12,21,09,27,-1.10
2008,12,21,09,28,-1.10
2008,12,21,09,29,-1.10
2008,12,21,09,30,-1.10
2008,12,21,09,31,-1.10
2008,12,21,09,32,-1.10
2008,12,21,09,33,-1.10
2008,12,21,09,34,-1.10
2008,12,21,09,35,-0.90
2008,12,21,09,36,-0.90
2008,12,21,09,37,-0.90
2008,12,21,09,38,-0.90
2008,12,21,09,39,-0.90
2008,12,21,09,40,-0.90
2008,12,21,09,41,-0.90
2008,12,21,09,42,-0.90
2008,12,21,09,43,-0.90
2008,12,21,09,44,-0.90
2008,12,21,09,45,-0.90
2008,12,21,09,46,-0.90
2008,12,21,09,47,-0.90
2008,12,21,09,48,-0.90
2008,12,21,09,49,-0.90
2008,12,21,09,50,-0.90
2008,12,21,09,51,-0.90
2008,12,21,09,52,-0.90
2008,12,21,09,53,-0.90
2008,12,21,09,54,-0.90
2008,12,21,09,55,-0.90
2008,12,21,09,56,-0.90
2008,12,21,09,57,-0.90
2008,12,21,09,58,-0.90
2008,12,21,09,59,-0.90
2008,12,21,10,00,-0.90
2008,12,21,10,01,-0.90
2008,12,21,10,02,-0.90
2008,12,21,10,03,-0.90
2008,12,21,10,04,-0.90
2008,12,21,10,05,-0.90
2008,12,21,10,06,-0.90
2008,12,21,10,07,-0.90
2008,12,21,10,08,-0.90
2008,12,21,10,09,-0.90
2008,12,21,10,10,-0.90
2008,12,21,10,11,-0.90
2008,12,21,10,12,-0.90
2008,12,21,10,13,-0.90
2008,12,21,10,14,-0.90
2008,12,21,10,15,-0.90
2008,12,21,10,16,-0.80
2008,12,21,10,17,-0.80
2008,12,21,10,18,-0.80
2008,12,21,10,19,-0.90
2008,12,21,10,20,-0.90
2008,12,21,10,21,-0.90
2008,12,21,10,22,-0.90
2008,12,21,10,23,-0.90
2008,12,21,10,24,-0.90
2008,12,21,10,25,-0.90
2008,12,21,10,26,-0.90
2008,12,21,10,27,-0.90
2008,12,21,10,28,-0.90
2008,12,21,10,29,-0.90
2008,12,21,10,30,-0.90
2008,12,21,10,31,-0.90
2008,12,21,10,32,-0.90
2008,12,21,10,33,-0.90
2008,12,21,10,34,-0.90
2008,12,21,10,35,-0.90
2008,12,21,10,36,-0.90
2008,12,21,10,37,-0.90
2008,12,21,10,38,-0.90
2008,12,21,10,39,-0.90
2008,12,21,10,40,-0.90
2008,12,21,10,41,-0.90
2008,12,21,10,42,-0.90
2008,12,21,10,43,-0.90
2008,12,21,10,44,-0.90
2008,12,21,10,45,-0.90
2008,12,21,10,46,-0.90
2008,12,21,10,47,-0.90
2008,12,21,10,48,-1.00
2008,12,21,10,49,-1.00
2008,12,21,10,50,-1.10
2008,12,21,10,51,-1.10
2008,12,21,10,52,-1.10
2008,12,21,10,53,-1.10
2008,12,21,10,54,-1.10
2008,12,21,10,55,-1.10
2008,12,21,10,56,-1.10
2008,12,21,10,57,-1.10
2008,12,21,10,58,-1.10
2008,12,21,10,59,-1.10
2008,12,21,11,00,-1.10
2008,12,21,11,01,-1.10
2008,12,21,11,02,-1.10
2008,12,21,11,03,-1.10
2008,12,21,11,04,-1.10
2008,12,21,11,05,-1.20
2008,12,21,11,06,-1.20
2008,12,21,11,07,-1.20
2008,12,21,11,08,-1.20
2008,12,21,11,09,-1.20
2008,12,21,11,10,-1.20
2008,12,21,11,11,-1.20
2008,12,21,11,12,-1.20
2008,12,21,11,13,-1.20
2008,12,21,11,14,-1.20
2008,12,21,11,15,-1.20
2008,12,21,11,16,-1.20
2008,12,21,11,17,-1.20
2008,12,21,11,18,-1.20
2008,12,21,11,19,-1.20
2008,12,21,11,20,-1.20
2008,12,21,11,21,-1.20
2008,12,21,11,22,-1.20
2008,12,21,11,23,-1.20
2008,12,21,11,24,-1.10
2008,12,21,11,25,-1.10
2008,12,21,11,26,-1.10
2008,12,21,11,27,-1.10
2008,12,21,11,28,-1.10
2008,12,21,11,29,-1.10
2008,12,21,11,30,-1.10
2008,12,21,11,31,-1.10
2008,12,21,11,32,-1.10
2008,12,21,11,33,-1.10
2008,12,21,11,34,-1.10
2008,12,21,11,35,-1.10
2008,12,21,11,36,-1.10
2008,12,21,11,37,-1.10
2008,12,21,11,38,-1.10
2008,12,21,11,39,-1.10
2008,12,21,11,40,-1.10
2008,12,21,11,41,-1.10
2008,12,21,11,42,-1.10
2008,12,21,11,43,-1.10
2008,12,21,11,44,-1.10
2008,12,21,11,45,-1.10
2008,12,21,11,46,-1.10
2008,12,21,11,47,-1.10
2008,12,21,11,48,-1.10
2008,12,21,11,49,-1.10
2008,12,21,11,50,-1.10
2008,12,21,11,51,-1.20
2008,12,21,11,52,-1.20
2008,12,21,11,53,-1.20
2008,12,21,11,54,-1.20
2008,12,21,11,55,-1.20
2008,12,21,11,56,-1.20
2008,12,21,11,57,-1.20
2008,12,21,11,58,-1.30
2008,12,21,11,59,-1.30
2008,12,21,12,00,-1.30
2008,12,21,12,01,-1.30
2008,12,21,12,02,-1.30
2008,12,21,12,03,-1.40
2008,12,21,12,04,-1.40
2008,12,21,12,05,-1.40
2008,12,21,12,06,-1.40
2008,12,21,12,07,-1.50
2008,12,21,12,08,-1.50
2008,12,21,12,09,-1.60
2008,12,21,12,10,-1.60
2008,12,21,12,11,-1.60
2008,12,21,12,12,-1.70
2008,12,21,12,13,-1.70
2008,12,21,12,14,-1.70
2008,12,21,12,15,-1.70
2008,12,21,12,16,-1.70
2008,12,21,12,17,-1.80
2008,12,21,12,18,-1.80
2008,12,21,12,19,-1.80
2008,12,21,12,20,-1.80
2008,12,21,12,21,-1.80
2008,12,21,12,22,-1.80
2008,12,21,12,23,-1.80
2008,12,21,12,24,-1.80
2008,12,21,12,25,-1.80
2008,12,21,12,26,-1.80
2008,12,21,12,27,-1.80
2008,12,21,12,28,-1.80
2008,12,21,12,29,-1.80
2008,12,21,12,30,-1.80
2008,12,21,12,31,-1.80
2008,12,21,12,32,-1.80
2008,12,21,12,33,-1.80
2008,12,21,12,34,-1.80
2008,12,21,12,35,-1.80
2008,12,21,12,36,-1.80
2008,12,21,12,37,-1.80
2008,12,21,12,38,-1.80
2008,12,21,12,39,-1.80
2008,12,21,12,40,-1.80
2008,12,21,12,41,-1.80
2008,12,21,12,42,-1.80
2008,12,21,12,43,-1.80
2008,12,21,12,44,-1.80
2008,12,21,12,45,-1.80
2008,12,21,12,46,-1.80
2008,12,21,12,47,-1.80
2008,12,21,12,48,-1.80
2008,12,21,12,49,-1.80
2008,12,21,12,50,-1.80
2008,12,21,12,51,-1.80
2008,12,21,12,52,-1.80
2008,12,21,12,53,-1.80
2008,12,21,12,54,-1.80
2008,12,21,12,55,-1.80
2008,12,21,12,56,-1.80
2008,12,21,12,57,-1.80
2008,12,21,12,58,-1.80
2008,12,21,12,59,-1.80
2008,12,21,13,00,-1.80
2008,12,21,13,01,-1.80
2008,12,21,13,02,-1.80
2008,12,21,13,03,-1.80
2008,12,21,13,04,-1.80
2008,12,21,13,05,-1.80
2008,12,21,13,06,-1.80
2008,12,21,13,07,-1.80
2008,12,21,13,08,-1.80
2008,12,21,13,09,-1.80
2008,12,21,13,10,-1.80
2008,12,21,13,11,-1.80
2008,12,21,13,12,-1.80
2008,12,21,13,13,-1.80
2008,12,21,13,14,-1.80
2008,12,21,13,15,-1.80
2008,12,21,13,16,-1.80
2008,12,21,13,17,-1.80
2008,12,21,13,18,-1.80
2008,12,21,13,19,-1.80
2008,12,21,13,20,-1.80
2008,12,21,13,21,-1.80
2008,12,21,13,22,-1.80
2008,12,21,13,23,-1.80
2008,12,21,13,24,-1.80
2008,12,21,13,25,-1.80
2008,12,21,13,26,-1.80
2008,12,21,13,27,-1.80
2008,12,21,13,28,-1.80
2008,12,21,13,29,-1.80
2008,12,21,13,30,-1.80
2008,12,21,13,31,-1.80
2008,12,21,13,32,-1.80
2008,12,21,13,33,-1.80
2008,12,21,13,34,-1.80
2008,12,21,13,35,-1.70
2008,12,21,13,36,-1.70
2008,12,21,13,37,-1.70
2008,12,21,13,38,-1.70
2008,12,21,13,39,-1.70
2008,12,21,13,40,-1.70
2008,12,21,13,41,-1.70
2008,12,21,13,42,-1.70
2008,12,21,13,43,-1.70
2008,12,21,13,44,-1.70
2008,12,21,13,45,-1.70
2008,12,21,13,46,-1.70
2008,12,21,13,47,-1.70
2008,12,21,13,48,-1.70
2008,12,21,13,49,-1.70
2008,12,21,13,50,-1.70
2008,12,21,13,51,-1.70
2008,12,21,13,52,-1.70
2008,12,21,13,53,-1.70
2008,12,21,13,54,-1.70
2008,12,21,13,55,-1.70
2008,12,21,13,56,-1.70
2008,12,21,13,57,-1.70
2008,12,21,13,58,-1.60
2008,12,21,13,59,-1.60
2008,12,21,14,00,-1.60
2008,12,21,14,01,-1.60
2008,12,21,14,02,-1.60
2008,12,21,14,03,-1.60
2008,12,21,14,04,-1.60
2008,12,21,14,05,-1.60
2008,12,21,14,06,-1.60
2008,12,21,14,07,-1.60
2008,12,21,14,08,-1.60
2008,12,21,14,09,-1.60
2008,12,21,14,10,-1.60
2008,12,21,14,11,-1.60
2008,12,21,14,12,-1.60
2008,12,21,14,13,-1.60
2008,12,21,14,14,-1.60
2008,12,21,14,15,-1.60
2008,12,21,14,16,-1.60
2008,12,21,14,17,-1.50
2008,12,21,14,18,-1.50
2008,12,21,14,19,-1.50
2008,12,21,14,20,-1.50
2008,12,21,14,21,-1.50
2008,12,21,14,22,-1.50
2008,12,21,14,23,-1.50
2008,12,21,14,24,-1.50
2008,12,21,14,25,-1.50
2008,12,21,14,26,-1.50
2008,12,21,14,27,-1.50
2008,12,21,14,28,-1.50
2008,12,21,14,29,-1.50
2008,12,21,14,30,-1.50
2008,12,21,14,31,-1.50
2008,12,21,14,32,-1.50
2008,12,21,14,33,-1.50
2008,12,21,14,34,-1.50
2008,12,21,14,35,-1.50
2008,12,21,14,36,-1.50
2008,12,21,14,37,-1.50
2008,12,21,14,38,-1.50
2008,12,21,14,39,-1.50
2008,12,21,14,40,-1.50
2008,12,21,14,41,-1.50
2008,12,21,14,42,-1.50
2008,12,21,14,43,-1.50
2008,12,21,14,44,-1.40
2008,12,21,14,45,-1.40
2008,12,21,14,46,-1.40
2008,12,21,14,47,-1.40
2008,12,21,14,48,-1.40
2008,12,21,14,49,-1.40
2008,12,21,14,50,-1.40
2008,12,21,14,51,-1.40
2008,12,21,14,52,-1.40
2008,12,21,14,53,-1.40
2008,12,21,14,54,-1.40
2008,12,21,14,55,-1.40
2008,12,21,14,56,-1.40
2008,12,21,14,57,-1.40
2008,12,21,14,58,-1.40
2008,12,21,14,59,-1.40
2008,12,21,15,00,-1.40
2008,12,21,15,01,-1.40
2008,12,21,15,02,-1.40
2008,12,21,15,03,-1.40
2008,12,21,15,04,-1.40
2008,12,21,15,05,-1.40
2008,12,21,15,06,-1.40
2008,12,21,15,07,-1.40
2008,12,21,15,08,-1.40
2008,12,21,15,09,-1.40
2008,12,21,15,10,-1.40
2008,12,21,15,11,-1.40
2008,12,21,15,12,-1.40
2008,12,21,15,13,-1.40
2008,12,21,15,14,-1.30
2008,12,21,15,15,-1.30
2008,12,21,15,16,-1.30
2008,12,21,15,17,-1.30
2008,12,21,15,18,-1.30
2008,12,21,15,19,-1.30
2008,12,21,15,20,-1.30
2008,12,21,15,21,-1.30
2008,12,21,15,22,-1.30
2008,12,21,15,23,-1.30
2008,12,21,15,24,-1.30
2008,12,21,15,25,-1.30
2008,12,21,15,26,-1.30
2008,12,21,15,27,-1.30
2008,12,21,15,28,-1.30
2008,12,21,15,29,-1.30
2008,12,21,15,30,-1.40
2008,12,21,15,31,-1.40
2008,12,21,15,32,-1.40
2008,12,21,15,33,-1.40
2008,12,21,15,34,-1.40
2008,12,21,15,35,-1.40
2008,12,21,15,36,-1.40
2008,12,21,15,37,-1.40
2008,12,21,15,38,-1.40
2008,12,21,15,39,-1.40
2008,12,21,15,40,-1.40
2008,12,21,15,41,-1.40
2008,12,21,15,42,-1.40
2008,12,21,15,43,-1.40
2008,12,21,15,44,-1.40
2008,12,21,15,45,-1.40
2008,12,21,15,46,-1.50
2008,12,21,15,47,-1.50
2008,12,21,15,48,-1.50
2008,12,21,15,49,-1.50
2008,12,21,15,50,-1.50
2008,12,21,15,51,-1.50
2008,12,21,15,52,-1.50
2008,12,21,15,53,-1.50
2008,12,21,15,54,-1.50
2008,12,21,15,55,-1.50
2008,12,21,15,56,-1.50
2008,12,21,15,57,-1.50
2008,12,21,15,58,-1.50
2008,12,21,15,59,-1.50
2008,12,21,16,00,-1.50
2008,12,21,16,01,-1.50
2008,12,21,16,02,-1.50
2008,12,21,16,03,-1.50
2008,12,21,16,04,-1.50
2008,12,21,16,05,-1.50
2008,12,21,16,06,-1.50
2008,12,21,16,07,-1.50
2008,12,21,16,08,-1.50
2008,12,21,16,09,-1.50
2008,12,21,16,10,-1.50
2008,12,21,16,11,-1.50
2008,12,21,16,12,-1.50
2008,12,21,16,13,-1.50
2008,12,21,16,14,-1.50
2008,12,21,16,15,-1.50
2008,12,21,16,16,-1.50
2008,12,21,16,17,-1.40
2008,12,21,16,18,-1.40
2008,12,21,16,19,-1.40
2008,12,21,16,20,-1.40
2008,12,21,16,21,-1.40
2008,12,21,16,22,-1.40
2008,12,21,16,23,-1.40
2008,12,21,16,24,-1.40
2008,12,21,16,25,-1.40
2008,12,21,16,26,-1.40
2008,12,21,16,27,-1.40
2008,12,21,16,28,-1.40
2008,12,21,16,29,-1.40
2008,12,21,16,30,-1.40
2008,12,21,16,31,-1.40
2008,12,21,16,32,-1.40
2008,12,21,16,33,-1.40
2008,12,21,16,34,-1.40
2008,12,21,16,35,-1.40
2008,12,21,16,36,-1.30
2008,12,21,16,37,-1.30
2008,12,21,16,38,-1.30
2008,12,21,16,39,-1.30
2008,12,21,16,40,-1.30
2008,12,21,16,41,-1.30
2008,12,21,16,42,-1.30
2008,12,21,16,43,-1.30
2008,12,21,16,44,-1.40
2008,12,21,16,45,-1.40
2008,12,21,16,46,-1.40
2008,12,21,16,47,-1.40
2008,12,21,16,48,-1.40
2008,12,21,16,49,-1.40
2008,12,21,16,50,-1.40
2008,12,21,16,51,-1.40
2008,12,21,16,52,-1.40
2008,12,21,16,53,-1.40
2008,12,21,16,54,-1.40
2008,12,21,16,55,-1.40
2008,12,21,16,56,-1.40
2008,12,21,16,57,-1.40
2008,12,21,16,58,-1.30
2008,12,21,16,59,-1.30
2008,12,21,17,00,-1.30
2008,12,21,17,01,-1.30
2008,12,21,17,02,-1.30
2008,12,21,17,03,-1.30
2008,12,21,17,04,-1.30
2008,12,21,17,05,-1.30
2008,12,21,17,06,-1.30
2008,12,21,17,07,-1.30
2008,12,21,17,08,-1.30
2008,12,21,17,09,-1.30
2008,12,21,17,10,-1.30
2008,12,21,17,11,-1.30
2008,12,21,17,12,-1.30
2008,12,21,17,13,-1.30
2008,12,21,17,14,-1.30
2008,12,21,17,15,-1.30
2008,12,21,17,16,-1.30
2008,12,21,17,17,-1.30
2008,12,21,17,18,-1.30
2008,12,21,17,19,-1.30